Home   Weather   Uppsala   Past weeks

Flag for Sweden Past Weather in Uppsala, Sweden — Yesterday and Last 2 Weeks

Now
27 °F

Clear.


Feels Like: 21 °F
Forecast: 25 / 37 °F
Wind: 5 mph from West

Location: Stockholm / Arlanda

Current Time: Dec 6, 2016 at 5:12:38 pm

Latest Report: Dec 6, 2016 at 4:20 pm


Visibility: 10 mi

Pressure: 30.39 "Hg

Humidity: 93%

Dew Point: 25 °F

Location of UppsalaLocation

Past Weather in Uppsala — Graph

°F

Uppsala Temperature Yesterday

Maximum temperature yesterday: 43 °F (at 9:50 am)
Minimum temperature yesterday: 32 °F (at 10:50 pm)
Average temperature yesterday: 38 °F

High & Low Weather Summary for the Past Weeks

 TemperatureHumidityPressure
High46 °F (Nov 21, 6:20 pm)100% (Nov 22, 12:50 am)30.39 "Hg (Nov 22, 12:50 am)
Low12 °F (Dec 3, 9:20 pm)52% (Dec 5, 5:50 pm)29.33 "Hg (Nov 26, 6:20 pm)
Average34 °F84%29.87 "Hg
* Reported Nov 21 3:20 pm — Dec 6 3:50 pm, Uppsala, Weather by CustomWeather, © 2016

Note: Actual official high and low records may vary slightly from our data, if they occured in-between our weather recording intervals... More about our weather records

Advertising

Uppsala Weather History for the Previous 24 Hours

Scroll right to see more
 ConditionsComfort  
Time TempWeatherWind HumidityBarometerVisibility
3:50 pm
Tue, Dec 6
27 °FPassing clouds.5 mph93%30.39 "HgN/A
3:20 pm28 °FPassing clouds.3 mph86%30.39 "HgN/A
2:50 pm28 °FClear.6 mph86%30.36 "Hg10 mi
2:20 pm30 °FSunny.6 mph80%30.36 "Hg10 mi
1:50 pm30 °FSunny.5 mph80%30.36 "Hg10 mi
1:20 pm32 °FSunny.6 mph80%30.36 "Hg10 mi
12:50 pm32 °FSunny.5 mph80%30.33 "Hg10 mi
12:20 pm32 °FSunny.3 mph80%30.33 "Hg10 mi
11:50 am30 °FSunny.5 mph86%30.33 "Hg10 mi
11:20 am30 °FSunny.6 mph86%30.33 "Hg10 mi
10:50 am30 °FPassing clouds.7 mph80%30.30 "HgN/A
10:20 am28 °FSunny.8 mph86%30.30 "Hg10 mi
9:50 am28 °FSunny.9 mph86%30.30 "Hg10 mi
9:20 am27 °FSunny.7 mph93%30.27 "Hg10 mi
8:50 am27 °FSunny.9 mph93%30.27 "Hg10 mi
8:20 am28 °FClear.8 mph86%30.24 "Hg10 mi
7:50 am28 °FPassing clouds.7 mph86%30.24 "HgN/A
7:20 am30 °FPassing clouds.9 mph80%30.21 "HgN/A
6:50 am30 °FPassing clouds.9 mph80%30.21 "HgN/A
6:20 am30 °FPartly cloudy.8 mph75%30.18 "HgN/A
5:50 am30 °FClear.9 mph75%30.18 "Hg10 mi
5:20 am30 °FClear.12 mph75%30.15 "Hg10 mi
4:50 am30 °FClear.13 mph75%30.15 "Hg10 mi
4:20 am30 °FClear.15 mph75%30.12 "Hg10 mi
3:50 am30 °FClear.13 mph75%30.12 "Hg10 mi
3:20 am30 °FClear.10 mph75%30.09 "Hg10 mi
2:50 am30 °FClear.9 mph75%30.09 "Hg10 mi
2:20 am30 °FClear.10 mph75%30.07 "Hg10 mi
1:50 am30 °FClear.12 mph75%30.07 "Hg10 mi
1:20 am30 °FClear.10 mph75%30.07 "Hg10 mi
12:50 am30 °FClear.12 mph75%30.04 "Hg10 mi
12:20 am32 °FClear.12 mph64%30.04 "Hg10 mi
11:50 pm
Mon, Dec 5
32 °FClear.14 mph69%30.01 "Hg10 mi
11:20 pm32 °FClear.13 mph64%30.01 "Hg10 mi
10:50 pm32 °FClear.12 mph69%30.01 "Hg10 mi
10:20 pm34 °FClear.10 mph65%29.98 "Hg10 mi
9:50 pm34 °FClear.13 mph65%29.98 "Hg10 mi
9:20 pm34 °FClear.13 mph65%29.95 "Hg10 mi
8:50 pm34 °FClear.12 mph65%29.95 "Hg10 mi
8:20 pm34 °FClear.13 mph60%29.95 "Hg10 mi
7:50 pm36 °FClear.14 mph56%29.92 "Hg10 mi
7:20 pm36 °FClear.13 mph60%29.92 "Hg10 mi
6:50 pm36 °FClear.14 mph56%29.92 "Hg10 mi
6:20 pm37 °FClear.14 mph52%29.89 "Hg10 mi
5:50 pm37 °FClear.17 mph52%29.89 "Hg10 mi
5:20 pm37 °FClear.16 mph56%29.89 "Hg10 mi
Weather by CustomWeather, © 2016

See weather overviewHow to use our weather pages